Weather History for Palmdale, CA

Change the Weather History Date:

Monday, April 15, 2013

  Actual Average Record
Temperature  
Mean Temperature 56 °F 58 °F  
Max Temperature 64 °F 72 °F 92 °F (1987)
Min Temperature 47 °F 43 °F 28 °F (1971)
Degree Days  
Heating Degree Days 9 8  
Month to date heating degree days 57 140  
Since 1 July heating degree days 2467 2761  
Cooling Degree Days 0 0  
Month to date cooling degree days 9 0  
Year to date cooling degree days 16 2  
Growing Degree Days 6 (Base 50)    
Moisture  
Dew Point 41 °F    
Average Humidity 58    
Maximum Humidity 77    
Minimum Humidity 39    
Precipitation  
Precipitation 0.00 in 0.02 in 0.19 in (1943)
Month to date precipitation 0.00 0.25  
Year to date precipitation 0.71 4.76  
Since 1 July precipitation 1.00 7.74  
Snow  
Snow 0.00 in - 0.00 in (1973)
Month to date snowfall 0.0  
Since 1 July snowfall 0.0  
Snow Depth 0.00 in    
Sea Level Pressure  
Sea Level Pressure 29.76 in    
Wind  
Wind Speed 21 mph (WSW)    
Max Wind Speed 32 mph    
Max Gust Speed 39 mph    
Visibility 10 miles    
Events      
T = Trace of Precipitation, MM = Missing Value Source: NWS Daily Summary

Daily Weather History Graph

Daily Weather History Graph

Search for Another Location

Airport:

Trip Planner

Search our weather history database for the weather conditions in past years. The results will help you decide how hot, cold, wet, or windy it might be!

Date:

Astronomy

Apr. 15, 2013 Rise Set
Actual Time 6:20 AM PDT 7:24 PM PDT
Civil Twilight 5:54 AM PDT 7:50 PM PDT
Nautical Twilight 5:23 AM PDT 8:21 PM PDT
Astronomical Twilight 4:51 AM PDT 8:53 PM PDT
Moon 9:57 AM PDT (4/15) No Moon Set
Length of Visible Light 13h 56m
Length of Day
13h 04m
Waxing Crescent, 25% of the Moon is Illuminated
Apr 15
Waxing Crescent
Apr 18
First Quarter
Apr 25
Full
May 2
Last Quarter
May 9
New

Hourly Weather History & Observations

Time (PDT) Temp. Dew Point Humidity Pressure Visibility Wind Dir Wind Speed Gust Speed Precip Events Conditions
12:53 AM 51.1 °F 43.0 °F 74% 29.74 in 10.0 mi SW 20.7 mph - N/A   Clear
1:53 AM 51.1 °F 41.0 °F 68% 29.75 in 10.0 mi SW 20.7 mph - N/A   Clear
2:53 AM 50.0 °F 43.0 °F 77% 29.74 in 10.0 mi SW 21.9 mph 29.9 mph N/A   Clear
3:53 AM 50.0 °F 41.0 °F 71% 29.74 in 10.0 mi WSW 17.3 mph - N/A   Clear
4:53 AM 50.0 °F 42.1 °F 74% 29.74 in 10.0 mi WSW 17.3 mph - N/A   Partly Cloudy
5:53 AM 50.0 °F 39.9 °F 68% 29.75 in 10.0 mi WSW 19.6 mph - N/A   Clear
6:53 AM 50.0 °F 39.9 °F 68% 29.78 in 10.0 mi West 19.6 mph - N/A   Mostly Cloudy
7:53 AM 50.0 °F 39.0 °F 66% 29.80 in 10.0 mi West 16.1 mph - N/A   Partly Cloudy
8:53 AM 54.0 °F 39.0 °F 57% 29.80 in 10.0 mi West 16.1 mph - N/A   Mostly Cloudy
9:00 AM 53.6 °F 39.2 °F 58% 29.82 in 10.0 mi WSW 15.0 mph - N/A   Mostly Cloudy
9:49 AM 57.2 °F 39.2 °F 51% 29.81 in 10.0 mi West 20.7 mph 26.5 mph N/A   Scattered Clouds
9:53 AM 57.0 °F 39.9 °F 53% 29.78 in 10.0 mi West 18.4 mph 26.5 mph N/A   Partly Cloudy
10:53 AM 60.1 °F 37.9 °F 44% 29.78 in 10.0 mi WSW 18.4 mph 25.3 mph N/A   Clear
11:53 AM 62.1 °F 37.0 °F 39% 29.76 in 10.0 mi WSW 24.2 mph 32.2 mph N/A   Clear
12:53 PM 63.0 °F 39.0 °F 41% 29.76 in 10.0 mi WSW 24.2 mph 36.8 mph N/A   Clear
1:53 PM 63.0 °F 39.9 °F 43% 29.76 in 10.0 mi WSW 28.8 mph 33.4 mph N/A   Clear
2:53 PM 63.0 °F 39.9 °F 43% 29.75 in 10.0 mi WSW 27.6 mph 32.2 mph N/A   Clear
3:53 PM 62.1 °F 39.9 °F 44% 29.72 in 10.0 mi WSW 24.2 mph 34.5 mph N/A   Clear
4:53 PM 62.1 °F 39.9 °F 44% 29.71 in 10.0 mi WSW 27.6 mph 31.1 mph N/A   Clear
5:53 PM 57.9 °F 43.0 °F 58% 29.71 in 10.0 mi SW 27.6 mph 35.7 mph N/A   Clear
6:53 PM 55.0 °F 43.0 °F 64% 29.72 in 10.0 mi WSW 19.6 mph 27.6 mph N/A   Clear
7:53 PM 53.1 °F 43.0 °F 69% 29.75 in 10.0 mi West 25.3 mph 31.1 mph N/A   Scattered Clouds
8:05 PM 53.6 °F 44.6 °F 72% 29.77 in 10.0 mi West 20.7 mph 28.8 mph N/A   Mostly Cloudy
8:53 PM 51.1 °F 44.1 °F 77% 29.76 in 10.0 mi West 21.9 mph - N/A   Overcast
9:10 PM 51.8 °F 42.8 °F 71% 29.80 in 10.0 mi West 18.4 mph - N/A   Overcast
9:53 PM 50.0 °F 42.1 °F 74% 29.77 in 10.0 mi WSW 19.6 mph 25.3 mph N/A   Mostly Cloudy
10:40 PM 50.0 °F 41.0 °F 71% 29.79 in 10.0 mi WSW 15.0 mph - N/A   Mostly Cloudy
10:53 PM 48.9 °F 41.0 °F 74% 29.76 in 10.0 mi West 18.4 mph - N/A   Overcast
11:18 PM 48.2 °F 41.0 °F 76% 29.80 in 10.0 mi West 18.4 mph 25.3 mph N/A   Overcast
11:53 PM 48.0 °F 39.9 °F 74% 29.78 in 10.0 mi West 18.4 mph - N/A   Overcast